Location: Unspecified
(0.0000°N, 0.0000°E)
Time: 15:22:53
(UTC+00:00)

IRIDIUM 114 - Pass Details

Date: 17 November 2025
Orbit: 776 x 779 km, 86.4° (Epoch: 12 December)

Event Time Altitude Azimuth Distance (km) Brightness Sun altitude
Exits shadow 20:30:13 19° 212° (SSW) 1,758 6.6 -38.5°
Drops below altitude 10° 20:31:53 10° 202° (SSW) 2,325 7.2 -38.9°
Sets 20:34:22 0° 194° (SSW) 3,255 8.0 -39.5°
